This is the latest recevied weather packets stored in our database for station/object WE8L. If no packets are shown the sender has not sent any weather packets the latest 1 day(s).
| Time | Temp. | Humidity | Pressure | Rain* | Wind** | Luminosity | Snow |
|---|---|---|---|---|---|---|---|
| 1778007248 | 20° C | 71% | 1010.6 hPa | 0 mm | 0.45 m/s, 297° | 75 W/m² | - |
| 1778006944 | 20° C | 71% | 1010.6 hPa | 0 mm | 0.45 m/s, 235° | 51 W/m² | - |
| 1778006641 | 20° C | 71% | 1010.7 hPa | 0 mm | 0.45 m/s, 266° | 41 W/m² | - |
| 1778006338 | 20° C | 70% | 1010.7 hPa | 0 mm | 0 m/s | 71 W/m² | - |
| 1778006030 | 20° C | 70% | 1010.8 hPa | 0 mm | 0.45 m/s, 293° | 81 W/m² | - |
| 1778005726 | 19.44° C | 71% | 1010.8 hPa | 0 mm | 0.45 m/s, 104° | 82 W/m² | - |
| 1778005423 | 19.44° C | 70% | 1011 hPa | 0 mm | 0.89 m/s, 231° | 75 W/m² | - |
| 1778005119 | 19.44° C | 71% | 1011.1 hPa | 0 mm | 0 m/s | 56 W/m² | - |
| 1778004817 | 19.44° C | 70% | 1011.1 hPa | 0 mm | 0.45 m/s, 228° | 48 W/m² | - |
| 1778004513 | 19.44° C | 70% | 1011.1 hPa | 0 mm | 0.89 m/s, 228° | 43 W/m² | - |
| 1778004210 | 19.44° C | 70% | 1011.2 hPa | 0 mm | 0.89 m/s, 176° | 41 W/m² | - |
| 1778003906 | 19.44° C | 70% | 1011.3 hPa | 0 mm | 0.89 m/s, 227° | 42 W/m² | - |
| 1778003603 | 19.44° C | 70% | 1011.4 hPa | 0 mm | 0.45 m/s, 238° | 66 W/m² | - |
| 1778003299 | 19.44° C | 71% | 1011.1 hPa | 0 mm | 0.45 m/s, 241° | 84 W/m² | - |
| 1778002997 | 19.44° C | 71% | 1011.4 hPa | 0 mm | 0.45 m/s, 278° | 77 W/m² | - |
| 1778002692 | 19.44° C | 70% | 1011.3 hPa | 0 mm | 1.34 m/s, 347° | 78 W/m² | - |
| 1778002389 | 18.89° C | 71% | 1011.4 hPa | 0 mm | 0.89 m/s, 225° | 63 W/m² | - |
| 1778002092 | 19.44° C | 70% | 1011.5 hPa | 0 mm | 0.45 m/s, 220° | 50 W/m² | - |
| 1778001783 | 19.44° C | 70% | 1011.4 hPa | 0 mm | 0 m/s | 53 W/m² | - |
| 1778001478 | 19.44° C | 70% | 1011.5 hPa | 0 mm | 0.89 m/s, 236° | 65 W/m² | - |
| 1778001175 | 19.44° C | 70% | 1011.4 hPa | 0 mm | 0.89 m/s, 238° | 74 W/m² | - |
| 1778000872 | 18.89° C | 69% | 1011.5 hPa | 0 mm | 0 m/s | 74 W/m² | - |
| 1778000570 | 18.89° C | 69% | 1011.6 hPa | 0 mm | 0.89 m/s, 234° | 74 W/m² | - |
| 1778000270 | 18.89° C | 70% | 1011.4 hPa | 0 mm | 0.45 m/s, 279° | 71 W/m² | - |
| 1777999966 | 18.89° C | 70% | 1011.5 hPa | 0 mm | 0.89 m/s, 219° | 83 W/m² | - |
* Rain latest hour (hover to see other rain measurements)
** Current wind speed in m/s (hover to see current wind gust speed)